| time (UTC) | temp F | wind direction | speed MPH | gust MPH | rain 1hr in | rain 24hr in | rain mn in | humidity % | barometer mb |
| 20260905043548 | 78 | 107 | 2.0 | 4.0 | 0.00 | 0.11 | 0.11 | 87 | 1013.9 |
| 20260905043118 | 78 | 115 | 2.0 | 4.0 | 0.00 | 0.11 | 0.11 | 87 | 1013.8 |
| 20260905042545 | 78 | 90 | 2.0 | 4.0 | 0.00 | 0.11 | 0.11 | 87 | 1014.0 |
| 20260905042045 | 78 | 92 | 2.0 | 4.0 | 0.00 | 0.11 | 0.11 | 87 | 1014.0 |
| 20260905041602 | 78 | 0 | 2.0 | 4.0 | 0.00 | 0.11 | 0.11 | 87 | 1014.1 |
| 20260905041047 | 78 | 87 | 2.0 | 3.0 | 0.00 | 0.11 | 0.11 | 87 | 1014.1 |
| 20260905040542 | 78 | 100 | 1.0 | 3.0 | 0.00 | 0.11 | 0.11 | 87 | 1014.1 |
| 20260905040117 | 78 | 100 | 1.0 | 3.0 | 0.00 | 0.11 | 0.11 | 87 | 1014.2 |
| 20260905035546 | 78 | 100 | 0.0 | 2.0 | 0.00 | 0.11 | 0.11 | 86 | 1014.2 |
| 20260905035044 | 78 | 100 | 0.0 | 3.0 | 0.00 | 0.11 | 0.11 | 86 | 1014.3 |
| 20260905034602 | 78 | 0 | 1.0 | 3.0 | 0.00 | 0.11 | 0.11 | 86 | 1014.3 |
| 20260905034048 | 78 | 0 | 1.0 | 3.0 | 0.00 | 0.11 | 0.11 | 86 | 1014.2 |
| 20260905033544 | 78 | 99 | 1.0 | 2.0 | 0.00 | 0.11 | 0.11 | 86 | 1014.2 |
| 20260905033101 | 78 | 99 | 0.0 | 2.0 | 0.00 | 0.11 | 0.11 | 86 | 1014.2 |
| 20260905032544 | 78 | 0 | 0.0 | 2.0 | 0.00 | 0.11 | 0.11 | 86 | 1014.4 |
| 20260905032043 | 79 | 99 | 1.0 | 2.0 | 0.00 | 0.11 | 0.11 | 86 | 1014.4 |
| 20260905031555 | 79 | 0 | 1.0 | 2.0 | 0.00 | 0.11 | 0.11 | 86 | 1014.4 |
| 20260905031043 | 79 | 0 | 1.0 | 2.0 | 0.00 | 0.11 | 0.11 | 86 | 1014.3 |
| 20260905030544 | 79 | 99 | 1.0 | 2.0 | 0.00 | 0.11 | 0.11 | 86 | 1014.3 |
| 20260905030054 | 79 | 99 | 1.0 | 3.0 | 0.00 | 0.11 | 0.11 | 86 | 1014.4 |
| 20260905025545 | 79 | 99 | 1.0 | 3.0 | 0.00 | 0.11 | 0.11 | 85 | 1014.4 |
| 20260905025046 | 79 | 99 | 1.0 | 2.0 | 0.00 | 0.11 | 0.11 | 85 | 1014.5 |
| 20260905024557 | 79 | 99 | 0.0 | 2.0 | 0.00 | 0.11 | 0.11 | 85 | 1014.5 |
| 20260905024046 | 79 | 99 | 0.0 | 4.0 | 0.00 | 0.11 | 0.11 | 85 | 1014.7 |
| 20260905023548 | 79 | 99 | 1.0 | 4.0 | 0.00 | 0.11 | 0.11 | 85 | 1014.8 |
| 20260905023103 | 79 | 51 | 2.0 | 4.0 | 0.00 | 0.11 | 0.11 | 85 | 1014.7 |
| 20260905022543 | 80 | 48 | 1.0 | 3.0 | 0.00 | 0.11 | 0.11 | 85 | 1014.9 |
| 20260905022045 | 80 | 47 | 1.0 | 3.0 | 0.00 | 0.11 | 0.11 | 85 | 1014.7 |
| 20260905021556 | 80 | 47 | 1.0 | 4.0 | 0.00 | 0.11 | 0.11 | 85 | 1014.7 |
| 20260905021048 | 80 | 47 | 1.0 | 4.0 | 0.00 | 0.11 | 0.11 | 85 | 1014.6 |
| 20260905020546 | 80 | 47 | 2.0 | 4.0 | 0.00 | 0.11 | 0.11 | 84 | 1014.6 |
| 20260905015544 | 80 | 47 | 2.0 | 4.0 | 0.00 | 0.11 | 0.11 | 84 | 1014.5 |
| 20260905015049 | 80 | 47 | 2.0 | 5.0 | 0.00 | 0.11 | 0.11 | 84 | 1014.4 |
| 20260905014559 | 80 | 57 | 1.0 | 5.0 | 0.00 | 0.11 | 0.11 | 84 | 1014.4 |
| 20260905014046 | 81 | 57 | 2.0 | 5.0 | 0.00 | 0.11 | 0.11 | 83 | 1014.4 |
| 20260905013546 | 81 | 74 | 1.0 | 4.0 | 0.00 | 0.11 | 0.11 | 83 | 1014.4 |
| 20260905013105 | 81 | 80 | 2.0 | 4.0 | 0.00 | 0.11 | 0.11 | 83 | 1014.4 |
| 20260905012548 | 81 | 80 | 2.0 | 4.0 | 0.00 | 0.11 | 0.11 | 83 | 1014.5 |
| 20260905012047 | 81 | 80 | 1.0 | 4.0 | 0.00 | 0.11 | 0.11 | 83 | 1014.4 |
| 20260905011555 | 81 | 80 | 1.0 | 5.0 | 0.00 | 0.11 | 0.11 | 82 | 1014.3 |
| 20260905011042 | 81 | 80 | 2.0 | 5.0 | 0.00 | 0.11 | 0.11 | 82 | 1014.3 |
| 20260905010541 | 81 | 92 | 1.0 | 3.0 | 0.00 | 0.11 | 0.11 | 82 | 1014.4 |
| 20260905010107 | 82 | 92 | 0.0 | 3.0 | 0.00 | 0.11 | 0.11 | 81 | 1014.1 |
| 20260905005544 | 82 | 92 | 1.0 | 3.0 | 0.00 | 0.11 | 0.11 | 81 | 1014.2 |
| 20260905005046 | 82 | 92 | 0.0 | 2.0 | 0.00 | 0.11 | 0.11 | 81 | 1014.0 |
| 20260905004613 | 82 | 92 | 0.0 | 2.0 | 0.00 | 0.11 | 0.11 | 81 | 1013.9 |
| 20260905004045 | 82 | 0 | 0.0 | 1.0 | 0.00 | 0.11 | 0.11 | 81 | 1014.0 |
| 20260905003548 | 82 | 0 | 0.0 | 1.0 | 0.00 | 0.11 | 0.11 | 80 | 1014.1 |
| 20260905003101 | 82 | 0 | 0.0 | 1.0 | 0.00 | 0.11 | 0.11 | 80 | 1014.1 |
| 20260905002548 | 82 | 0 | 0.0 | 1.0 | 0.00 | 0.11 | 0.11 | 80 | 1014.2 |
| 20260905002042 | 83 | 0 | 0.0 | 2.0 | 0.00 | 0.11 | 0.11 | 79 | 1014.2 |
| 20260905001605 | 83 | 92 | 0.0 | 2.0 | 0.00 | 0.11 | 0.11 | 79 | 1014.1 |
| 20260905001042 | 83 | 92 | 0.0 | 2.0 | 0.00 | 0.11 | 0.11 | 79 | 1014.2 |
| 20260905000546 | 83 | 0 | 0.0 | 1.0 | 0.00 | 0.11 | 0.11 | 78 | 1014.1 |
| 20260905000059 | 83 | 92 | 0.0 | 2.0 | 0.00 | 0.11 | 0.11 | 78 | 1014.0 |
| 20260904235546 | 83 | 92 | 0.0 | 4.0 | 0.00 | 0.11 | 0.11 | 78 | 1013.8 |
| 20260904235049 | 83 | 92 | 2.0 | 4.0 | 0.00 | 0.11 | 0.11 | 78 | 1013.7 |
| 20260904234604 | 84 | 91 | 1.0 | 3.0 | 0.00 | 0.11 | 0.11 | 77 | 1013.8 |
| 20260904234045 | 84 | 91 | 1.0 | 4.0 | 0.00 | 0.11 | 0.11 | 78 | 1013.7 |
| 20260904233545 | 84 | 91 | 1.0 | 4.0 | 0.00 | 0.11 | 0.11 | 78 | 1013.8 |
| 20260904233054 | 84 | 91 | 2.0 | 6.0 | 0.00 | 0.11 | 0.11 | 77 | 1013.7 |
| 20260904232545 | 84 | 89 | 2.0 | 6.0 | 0.00 | 0.11 | 0.11 | 79 | 1013.8 |
| 20260904232045 | 84 | 78 | 1.0 | 5.0 | 0.00 | 0.11 | 0.11 | 78 | 1013.8 |
| 20260904231603 | 84 | 78 | 1.0 | 5.0 | 0.00 | 0.11 | 0.11 | 78 | 1013.9 |
| 20260904231046 | 84 | 78 | 1.0 | 4.0 | 0.00 | 0.11 | 0.11 | 78 | 1013.9 |
| 20260904230546 | 84 | 61 | 2.0 | 4.0 | 0.00 | 0.11 | 0.11 | 78 | 1014.0 |
| 20260904230112 | 84 | 61 | 2.0 | 4.0 | 0.00 | 0.11 | 0.11 | 78 | 1014.0 |
| 20260904225545 | 84 | 35 | 2.0 | 5.0 | 0.00 | 0.11 | 0.11 | 80 | 1013.9 |
| 20260904225046 | 84 | 67 | 2.0 | 6.0 | 0.00 | 0.11 | 0.11 | 80 | 1013.7 |
| 20260904224604 | 83 | 17 | 3.0 | 8.0 | 0.00 | 0.11 | 0.11 | 81 | 1013.8 |
| 20260904224049 | 84 | 69 | 3.0 | 8.0 | 0.00 | 0.11 | 0.11 | 81 | 1013.7 |
| 20260904223549 | 83 | 56 | 4.0 | 7.0 | 0.00 | 0.11 | 0.11 | 80 | 1013.8 |
| 20260904223055 | 83 | 34 | 3.0 | 8.0 | 0.00 | 0.11 | 0.11 | 80 | 1013.9 |
| 20260904222545 | 84 | 54 | 3.0 | 8.0 | 0.00 | 0.11 | 0.11 | 80 | 1013.8 |
| 20260904222053 | 84 | 60 | 3.0 | 11.0 | 0.00 | 0.11 | 0.11 | 81 | 1014.0 |
| 20260904221553 | 84 | 86 | 5.0 | 11.0 | 0.00 | 0.11 | 0.11 | 81 | 1014.1 |
| 20260904221047 | 84 | 49 | 3.0 | 9.0 | 0.00 | 0.11 | 0.11 | 82 | 1013.9 |
| 20260904220547 | 84 | 19 | 4.0 | 9.0 | 0.00 | 0.11 | 0.11 | 85 | 1013.7 |
| 20260904220115 | 84 | 39 | 4.0 | 9.0 | 0.00 | 0.11 | 0.11 | 81 | 1013.7 |
| 20260904215543 | 84 | 53 | 2.0 | 8.0 | 0.00 | 0.11 | 0.11 | 81 | 1013.7 |
| 20260904215047 | 84 | 34 | 3.0 | 8.0 | 0.00 | 0.11 | 0.11 | 80 | 1013.8 |
| 20260904214554 | 84 | 24 | 4.0 | 8.0 | 0.00 | 0.11 | 0.11 | 80 | 1013.8 |
| 20260904214049 | 84 | 68 | 4.0 | 8.0 | 0.00 | 0.11 | 0.11 | 79 | 1013.6 |
| 20260904213544 | 84 | 76 | 2.0 | 3.0 | 0.00 | 0.11 | 0.11 | 80 | 1013.8 |
| 20260904213055 | 84 | 0 | 1.0 | 3.0 | 0.00 | 0.11 | 0.11 | 80 | 1013.7 |
| 20260904212546 | 84 | 80 | 1.0 | 3.0 | 0.00 | 0.11 | 0.11 | 81 | 1013.7 |
| 20260904212046 | 83 | 103 | 0.0 | 1.0 | 0.00 | 0.11 | 0.11 | 81 | 1013.7 |
| 20260904211613 | 83 | 0 | 0.0 | 2.0 | 0.00 | 0.11 | 0.11 | 81 | 1013.7 |
| 20260904211048 | 82 | 0 | 0.0 | 2.0 | 0.00 | 0.11 | 0.11 | 81 | 1013.6 |
| 20260904210546 | 82 | 103 | 0.0 | 2.0 | 0.00 | 0.11 | 0.11 | 82 | 1013.6 |
| 20260904210055 | 82 | 0 | 0.0 | 2.0 | 0.00 | 0.11 | 0.11 | 83 | 1013.6 |
| 20260904205545 | 82 | 0 | 0.0 | 2.0 | 0.00 | 0.11 | 0.11 | 86 | 1013.6 |
| 20260904205047 | 82 | 103 | 0.0 | 2.0 | 0.00 | 0.11 | 0.11 | 84 | 1013.5 |
| 20260904204554 | 82 | 0 | 0.0 | 3.0 | 0.01 | 0.11 | 0.11 | 85 | 1013.6 |
| 20260904204044 | 81 | 0 | 1.0 | 3.0 | 0.01 | 0.11 | 0.11 | 86 | 1013.6 |
| 20260904203545 | 81 | 103 | 0.0 | 4.0 | 0.02 | 0.11 | 0.11 | 88 | 1013.7 |
| 20260904203058 | 80 | 99 | 1.0 | 4.0 | 0.02 | 0.11 | 0.11 | 89 | 1013.6 |
| 20260904202545 | 79 | 99 | 2.0 | 6.0 | 0.02 | 0.11 | 0.11 | 88 | 1013.5 |
| 20260904202043 | 79 | 99 | 2.0 | 8.0 | 0.02 | 0.11 | 0.11 | 88 | 1013.7 |
| 20260904201556 | 79 | 108 | 3.0 | 8.0 | 0.02 | 0.11 | 0.11 | 88 | 1013.8 |
| 20260904201048 | 79 | 105 | 3.0 | 8.0 | 0.02 | 0.11 | 0.11 | 88 | 1013.9 |
| 20260904200546 | 79 | 94 | 2.0 | 4.0 | 0.02 | 0.11 | 0.11 | 88 | 1013.8 |
| 20260904200055 | 79 | 122 | 2.0 | 4.0 | 0.02 | 0.11 | 0.11 | 88 | 1013.9 |
| 20260904195545 | 79 | 92 | 2.0 | 4.0 | 0.02 | 0.11 | 0.11 | 87 | 1013.9 |
| 20260904195045 | 79 | 89 | 2.0 | 4.0 | 0.02 | 0.11 | 0.11 | 87 | 1014.1 |
| 20260904194615 | 79 | 99 | 2.0 | 4.0 | 0.01 | 0.10 | 0.10 | 87 | 1014.3 |
| 20260904194044 | 79 | 99 | 1.0 | 4.0 | 0.02 | 0.10 | 0.10 | 87 | 1014.4 |
| 20260904193547 | 79 | 99 | 1.0 | 4.0 | 0.02 | 0.09 | 0.09 | 87 | 1014.3 |
| 20260904193121 | 79 | 99 | 2.0 | 4.0 | 0.05 | 0.09 | 0.09 | 86 | 1014.5 |
| 20260904192543 | 79 | 99 | 1.0 | 4.0 | 0.07 | 0.09 | 0.09 | 86 | 1014.4 |
| 20260904192045 | 79 | 99 | 1.0 | 4.0 | 0.07 | 0.09 | 0.09 | 86 | 1014.4 |
| 20260904191555 | 79 | 99 | 2.0 | 4.0 | 0.08 | 0.09 | 0.09 | 86 | 1014.5 |
| 20260904191044 | 79 | 88 | 1.0 | 4.0 | 0.08 | 0.09 | 0.09 | 86 | 1014.5 |
| 20260904190545 | 80 | 88 | 3.0 | 4.0 | 0.08 | 0.09 | 0.09 | 85 | 1014.6 |
| 20260904190054 | 80 | 88 | 2.0 | 4.0 | 0.08 | 0.09 | 0.09 | 85 | 1014.7 |
| 20260904185544 | 80 | 89 | 2.0 | 4.0 | 0.08 | 0.09 | 0.09 | 85 | 1014.7 |
| 20260904185044 | 80 | 157 | 1.0 | 3.0 | 0.08 | 0.09 | 0.09 | 84 | 1014.5 |
| 20260904184600 | 80 | 157 | 2.0 | 5.0 | 0.08 | 0.09 | 0.09 | 84 | 1014.5 |
| 20260904184044 | 80 | 163 | 0.0 | 6.0 | 0.07 | 0.08 | 0.08 | 84 | 1014.7 |
| 20260904183544 | 80 | 162 | 1.0 | 10.0 | 0.06 | 0.07 | 0.07 | 84 | 1014.6 |
| 20260904183116 | 81 | 122 | 2.0 | 10.0 | 0.03 | 0.04 | 0.04 | 84 | 1014.6 |
| 20260904182544 | 81 | 156 | 3.0 | 8.0 | 0.01 | 0.02 | 0.02 | 84 | 1014.8 |
| 20260904182044 | 82 | 155 | 4.0 | 8.0 | 0.01 | 0.02 | 0.02 | 84 | 1015.0 |
| 20260904181553 | 82 | 107 | 4.0 | 8.0 | 0.00 | 0.01 | 0.01 | 83 | 1015.3 |
| 20260904181044 | 82 | 185 | 2.0 | 5.0 | 0.00 | 0.01 | 0.01 | 83 | 1015.2 |
| 20260904180544 | 82 | 229 | 1.0 | 4.0 | 0.01 | 0.01 | 0.01 | 83 | 1015.1 |
| 20260904180121 | 82 | 225 | 1.0 | 8.0 | 0.01 | 0.01 | 0.01 | 83 | 1014.9 |
| 20260904175543 | 83 | 225 | 1.0 | 8.0 | 0.01 | 0.01 | 0.01 | 84 | 1015.1 |
| 20260904175043 | 83 | 218 | 3.0 | 8.0 | 0.01 | 0.01 | 0.01 | 84 | 1015.3 |
| 20260904174608 | 83 | 223 | 2.0 | 6.0 | 0.01 | 0.01 | 0.01 | 85 | 1014.9 |
| 20260904174044 | 83 | 214 | 3.0 | 6.0 | 0.01 | 0.01 | 0.01 | 84 | 1014.9 |
| 20260904173544 | 83 | 196 | 3.0 | 5.0 | 0.01 | 0.01 | 0.01 | 85 | 1015.0 |
| 20260904173054 | 83 | 211 | 2.0 | 6.0 | 0.01 | 0.01 | 0.01 | 84 | 1015.0 |
| 20260904172546 | 83 | 208 | 2.0 | 6.0 | 0.01 | 0.01 | 0.01 | 84 | 1015.3 |
| 20260904172044 | 83 | 188 | 2.0 | 7.0 | 0.01 | 0.01 | 0.01 | 84 | 1015.4 |
| 20260904171558 | 84 | 214 | 2.0 | 7.0 | 0.01 | 0.01 | 0.01 | 83 | 1015.1 |
| 20260904171043 | 84 | 242 | 2.0 | 5.0 | 0.01 | 0.01 | 0.01 | 81 | 1014.9 |
| 20260904170546 | 84 | 183 | 1.0 | 9.0 | 0.00 | 0.00 | 0.00 | 82 | 1015.0 |
| 20260904170059 | 85 | 183 | 3.0 | 9.0 | 0.00 | 0.00 | 0.00 | 78 | 1015.1 |
| 20260904165545 | 87 | 195 | 3.0 | 7.0 | 0.00 | 0.00 | 0.00 | 76 | 1015.4 |
| 20260904165045 | 87 | 211 | 3.0 | 6.0 | 0.00 | 0.00 | 0.00 | 74 | 1015.5 |
| 20260904164557 | 88 | 198 | 2.0 | 6.0 | 0.00 | 0.00 | 0.00 | 72 | 1015.5 |
| 20260904164044 | 88 | 180 | 2.0 | 7.0 | 0.00 | 0.00 | 0.00 | 70 | 1015.5 |
| 20260904163544 | 89 | 195 | 2.0 | 7.0 | 0.00 | 0.00 | 0.00 | 73 | 1015.4 |
| 20260904163052 | 89 | 192 | 2.0 | 6.0 | 0.00 | 0.00 | 0.00 | 73 | 1015.5 |
| 20260904162544 | 88 | 205 | 4.0 | 6.0 | 0.00 | 0.00 | 0.00 | 76 | 1015.7 |
| 20260904162045 | 87 | 186 | 2.0 | 5.0 | 0.00 | 0.00 | 0.00 | 78 | 1015.8 |
| 20260904161620 | 87 | 188 | 2.0 | 6.0 | 0.00 | 0.00 | 0.00 | 78 | 1015.7 |
| 20260904161046 | 86 | 148 | 2.0 | 6.0 | 0.00 | 0.00 | 0.00 | 79 | 1015.8 |
| 20260904160548 | 85 | 134 | 3.0 | 6.0 | 0.00 | 0.00 | 0.00 | 79 | 1015.6 |
| 20260904160057 | 85 | 153 | 3.0 | 6.0 | 0.00 | 0.00 | 0.00 | 80 | 1015.7 |
| 20260904155546 | 85 | 173 | 2.0 | 6.0 | 0.00 | 0.00 | 0.00 | 80 | 1015.6 |
| 20260904155044 | 85 | 175 | 2.0 | 8.0 | 0.00 | 0.00 | 0.00 | 80 | 1015.6 |
| 20260904154603 | 85 | 167 | 3.0 | 8.0 | 0.00 | 0.00 | 0.00 | 79 | 1015.5 |
| 20260904154044 | 85 | 136 | 2.0 | 6.0 | 0.00 | 0.00 | 0.00 | 80 | 1015.3 |
| 20260904153547 | 85 | 153 | 2.0 | 7.0 | 0.00 | 0.00 | 0.00 | 79 | 1015.2 |
| 20260904153056 | 85 | 161 | 3.0 | 8.0 | 0.00 | 0.00 | 0.00 | 79 | 1015.2 |
| 20260904152546 | 86 | 163 | 2.0 | 8.0 | 0.00 | 0.00 | 0.00 | 77 | 1015.3 |
| 20260904152049 | 86 | 181 | 3.0 | 7.0 | 0.00 | 0.00 | 0.00 | 77 | 1015.4 |
| 20260904151558 | 87 | 170 | 4.0 | 7.0 | 0.00 | 0.00 | 0.00 | 78 | 1015.4 |
| 20260904151045 | 87 | 120 | 2.0 | 7.0 | 0.00 | 0.00 | 0.00 | 79 | 1015.3 |
| 20260904150545 | 86 | 134 | 2.0 | 7.0 | 0.00 | 0.00 | 0.00 | 80 | 1015.3 |
| 20260904145545 | 85 | 121 | 3.0 | 7.0 | 0.00 | 0.00 | 0.00 | 80 | 1015.3 |
| 20260904145045 | 85 | 126 | 2.0 | 7.0 | 0.00 | 0.00 | 0.00 | 79 | 1015.2 |
| 20260904144609 | 86 | 127 | 2.0 | 7.0 | 0.00 | 0.00 | 0.00 | 78 | 1015.2 |
| 20260904144044 | 86 | 128 | 2.0 | 6.0 | 0.00 | 0.00 | 0.00 | 82 | 1015.1 |
| 20260904143544 | 86 | 113 | 2.0 | 9.0 | 0.00 | 0.00 | 0.00 | 80 | 1015.1 |
| 20260904143102 | 86 | 158 | 3.0 | 9.0 | 0.00 | 0.00 | 0.00 | 80 | 1015.0 |
| 20260904142544 | 85 | 105 | 2.0 | 8.0 | 0.00 | 0.00 | 0.00 | 80 | 1015.0 |
| 20260904142044 | 85 | 45 | 2.0 | 8.0 | 0.00 | 0.00 | 0.00 | 81 | 1015.0 |
| 20260904141600 | 85 | 75 | 3.0 | 7.0 | 0.00 | 0.00 | 0.00 | 81 | 1015.0 |
| 20260904141043 | 85 | 69 | 3.0 | 7.0 | 0.00 | 0.00 | 0.00 | 81 | 1015.0 |
| 20260904140544 | 84 | 95 | 3.0 | 6.0 | 0.00 | 0.00 | 0.00 | 82 | 1015.0 |
| 20260904140059 | 84 | 100 | 3.0 | 7.0 | 0.00 | 0.00 | 0.00 | 82 | 1014.9 |
| 20260904135543 | 84 | 120 | 3.0 | 8.0 | 0.00 | 0.00 | 0.00 | 83 | 1015.0 |
| 20260904135045 | 83 | 94 | 3.0 | 8.0 | 0.00 | 0.00 | 0.00 | 84 | 1014.8 |
| 20260904134557 | 83 | 72 | 2.0 | 7.0 | 0.00 | 0.00 | 0.00 | 85 | 1014.9 |
| 20260904134046 | 82 | 78 | 2.0 | 7.0 | 0.00 | 0.00 | 0.00 | 85 | 1014.7 |
| 20260904133543 | 82 | 108 | 3.0 | 7.0 | 0.00 | 0.00 | 0.00 | 86 | 1014.7 |
| 20260904133115 | 81 | 98 | 2.0 | 6.0 | 0.00 | 0.00 | 0.00 | 86 | 1014.7 |
| 20260904132546 | 81 | 123 | 2.0 | 6.0 | 0.00 | 0.00 | 0.00 | 86 | 1014.7 |
| 20260904132044 | 81 | 109 | 3.0 | 7.0 | 0.00 | 0.00 | 0.00 | 87 | 1014.8 |
| 20260904131606 | 80 | 77 | 3.0 | 7.0 | 0.00 | 0.00 | 0.00 | 87 | 1014.8 |
| 20260904131043 | 80 | 37 | 4.0 | 7.0 | 0.00 | 0.00 | 0.00 | 88 | 1014.7 |
| 20260904130544 | 80 | 103 | 4.0 | 7.0 | 0.00 | 0.00 | 0.00 | 89 | 1014.7 |
| 20260904130101 | 79 | 92 | 2.0 | 5.0 | 0.00 | 0.00 | 0.00 | 89 | 1014.7 |
| 20260904125543 | 79 | 77 | 2.0 | 4.0 | 0.00 | 0.00 | 0.00 | 90 | 1014.8 |
| 20260904125044 | 79 | 47 | 2.0 | 4.0 | 0.00 | 0.00 | 0.00 | 90 | 1014.7 |
| 20260904124606 | 79 | 69 | 1.0 | 4.0 | 0.00 | 0.00 | 0.00 | 90 | 1014.7 |
| 20260904124043 | 78 | 71 | 1.0 | 4.0 | 0.00 | 0.00 | 0.00 | 90 | 1014.8 |
| 20260904123548 | 78 | 70 | 2.0 | 4.0 | 0.00 | 0.00 | 0.00 | 90 | 1014.7 |
| 20260904123057 | 78 | 69 | 2.0 | 4.0 | 0.00 | 0.00 | 0.00 | 90 | 1014.7 |
| 20260904122545 | 77 | 49 | 1.0 | 5.0 | 0.00 | 0.00 | 0.00 | 90 | 1014.6 |
| 20260904122046 | 77 | 48 | 3.0 | 6.0 | 0.00 | 0.00 | 0.00 | 90 | 1014.5 |
| 20260904121556 | 77 | 74 | 3.0 | 6.0 | 0.00 | 0.00 | 0.00 | 90 | 1014.4 |
| 20260904121045 | 77 | 82 | 3.0 | 7.0 | 0.00 | 0.00 | 0.00 | 90 | 1014.5 |
| 20260904120544 | 76 | 42 | 3.0 | 7.0 | 0.00 | 0.00 | 0.00 | 90 | 1014.4 |
| 20260904120111 | 76 | 63 | 2.0 | 5.0 | 0.00 | 0.00 | 0.00 | 90 | 1014.4 |
| 20260904115546 | 76 | 73 | 2.0 | 5.0 | 0.00 | 0.00 | 0.00 | 89 | 1014.5 |
| 20260904115046 | 76 | 88 | 2.0 | 5.0 | 0.00 | 0.00 | 0.00 | 89 | 1014.4 |
| 20260904114602 | 76 | 87 | 2.0 | 5.0 | 0.00 | 0.00 | 0.00 | 90 | 1014.4 |
| 20260904114045 | 76 | 55 | 2.0 | 5.0 | 0.00 | 0.00 | 0.00 | 89 | 1014.3 |
| 20260904113546 | 76 | 81 | 2.0 | 5.0 | 0.00 | 0.00 | 0.00 | 89 | 1014.3 |
| 20260904113058 | 76 | 80 | 2.0 | 5.0 | 0.00 | 0.00 | 0.00 | 89 | 1014.3 |
| 20260904112544 | 76 | 79 | 2.0 | 5.0 | 0.00 | 0.00 | 0.00 | 89 | 1014.3 |
| 20260904112043 | 76 | 79 | 3.0 | 7.0 | 0.00 | 0.00 | 0.00 | 89 | 1014.2 |
| 20260904111606 | 76 | 77 | 2.0 | 7.0 | 0.00 | 0.00 | 0.00 | 89 | 1014.1 |
| 20260904111043 | 76 | 49 | 3.0 | 7.0 | 0.00 | 0.00 | 0.00 | 89 | 1013.9 |
| 20260904110546 | 76 | 46 | 3.0 | 7.0 | 0.00 | 0.00 | 0.00 | 89 | 1014.0 |
| 20260904105543 | 76 | 67 | 2.0 | 6.0 | 0.00 | 0.00 | 0.00 | 89 | 1014.0 |
| 20260904105044 | 76 | 63 | 2.0 | 7.0 | 0.00 | 0.00 | 0.00 | 89 | 1014.2 |
| 20260904104601 | 76 | 78 | 3.0 | 7.0 | 0.00 | 0.00 | 0.00 | 89 | 1014.0 |
| 20260904104046 | 76 | 72 | 2.0 | 6.0 | 0.00 | 0.00 | 0.00 | 89 | 1014.1 |
| 20260904103548 | 76 | 67 | 1.0 | 6.0 | 0.00 | 0.00 | 0.00 | 89 | 1014.1 |
| 20260904103057 | 76 | 0 | 2.0 | 6.0 | 0.00 | 0.00 | 0.00 | 89 | 1014.1 |
| 20260904102545 | 76 | 61 | 3.0 | 6.0 | 0.00 | 0.00 | 0.00 | 89 | 1014.0 |
| 20260904102048 | 76 | 88 | 2.0 | 4.0 | 0.00 | 0.00 | 0.00 | 89 | 1014.1 |
| 20260904101605 | 76 | 76 | 1.0 | 4.0 | 0.00 | 0.00 | 0.00 | 89 | 1014.0 |
| 20260904101044 | 76 | 74 | 1.0 | 5.0 | 0.00 | 0.00 | 0.00 | 89 | 1013.9 |
| 20260904100544 | 77 | 74 | 2.0 | 6.0 | 0.00 | 0.00 | 0.00 | 89 | 1013.9 |
| 20260904095544 | 77 | 49 | 3.0 | 5.0 | 0.00 | 0.00 | 0.00 | 89 | 1013.8 |
| 20260904095045 | 77 | 80 | 2.0 | 5.0 | 0.00 | 0.00 | 0.00 | 89 | 1013.6 |
| 20260904094558 | 77 | 69 | 2.0 | 5.0 | 0.00 | 0.00 | 0.00 | 89 | 1013.8 |
| 20260904094045 | 77 | 74 | 2.0 | 5.0 | 0.00 | 0.00 | 0.00 | 89 | 1013.7 |
| 20260904093547 | 77 | 79 | 2.0 | 6.0 | 0.00 | 0.00 | 0.00 | 88 | 1013.7 |
| 20260904093054 | 77 | 81 | 2.0 | 7.0 | 0.00 | 0.00 | 0.00 | 88 | 1013.7 |
| 20260904092544 | 77 | 79 | 3.0 | 7.0 | 0.00 | 0.00 | 0.00 | 88 | 1013.7 |
| 20260904092043 | 77 | 57 | 2.0 | 6.0 | 0.00 | 0.00 | 0.00 | 88 | 1013.6 |
| 20260904091554 | 77 | 51 | 3.0 | 6.0 | 0.00 | 0.00 | 0.00 | 88 | 1013.5 |
| 20260904091042 | 77 | 56 | 2.0 | 5.0 | 0.00 | 0.00 | 0.00 | 88 | 1013.5 |
| 20260904090543 | 77 | 56 | 3.0 | 5.0 | 0.00 | 0.00 | 0.00 | 88 | 1013.5 |
| 20260904090059 | 77 | 71 | 3.0 | 5.0 | 0.00 | 0.00 | 0.00 | 88 | 1013.5 |
| 20260904085544 | 77 | 50 | 2.0 | 4.0 | 0.00 | 0.00 | 0.00 | 88 | 1013.3 |
| 20260904085043 | 77 | 82 | 2.0 | 5.0 | 0.00 | 0.00 | 0.00 | 88 | 1013.4 |
| 20260904084559 | 77 | 82 | 2.0 | 5.0 | 0.00 | 0.00 | 0.00 | 88 | 1013.4 |
| 20260904084045 | 77 | 55 | 2.0 | 5.0 | 0.00 | 0.00 | 0.00 | 88 | 1013.4 |
| 20260904083548 | 77 | 72 | 2.0 | 4.0 | 0.00 | 0.00 | 0.00 | 88 | 1013.5 |
| 20260904083104 | 77 | 74 | 2.0 | 4.0 | 0.00 | 0.00 | 0.00 | 88 | 1013.4 |
| 20260904082544 | 77 | 74 | 2.0 | 4.0 | 0.00 | 0.00 | 0.00 | 88 | 1013.3 |
| 20260904082042 | 77 | 74 | 1.0 | 5.0 | 0.00 | 0.00 | 0.00 | 88 | 1013.4 |
| 20260904081551 | 77 | 71 | 2.0 | 5.0 | 0.00 | 0.00 | 0.00 | 88 | 1013.3 |
| 20260904081048 | 77 | 67 | 2.0 | 4.0 | 0.00 | 0.00 | 0.00 | 88 | 1013.3 |
| 20260904080545 | 77 | 69 | 1.0 | 4.0 | 0.00 | 0.00 | 0.00 | 88 | 1013.2 |
| 20260904080105 | 77 | 69 | 1.0 | 5.0 | 0.00 | 0.00 | 0.00 | 88 | 1013.1 |
| 20260904075545 | 77 | 71 | 2.0 | 5.0 | 0.00 | 0.00 | 0.00 | 88 | 1013.2 |
| 20260904075046 | 77 | 51 | 3.0 | 5.0 | 0.00 | 0.00 | 0.00 | 88 | 1013.3 |
| 20260904074557 | 77 | 57 | 2.0 | 5.0 | 0.00 | 0.00 | 0.00 | 87 | 1013.4 |
| 20260904074042 | 77 | 61 | 2.0 | 5.0 | 0.00 | 0.00 | 0.00 | 87 | 1013.5 |
| 20260904073545 | 77 | 65 | 2.0 | 5.0 | 0.00 | 0.00 | 0.00 | 87 | 1013.6 |
| 20260904073103 | 77 | 71 | 2.0 | 6.0 | 0.00 | 0.00 | 0.00 | 87 | 1013.5 |
| 20260904072544 | 77 | 59 | 3.0 | 6.0 | 0.00 | 0.00 | 0.00 | 87 | 1013.6 |
| 20260904072045 | 77 | 60 | 2.0 | 6.0 | 0.00 | 0.00 | 0.00 | 87 | 1013.5 |
| 20260904071602 | 77 | 53 | 2.0 | 5.0 | 0.00 | 0.00 | 0.00 | 87 | 1013.6 |
| 20260904071043 | 77 | 54 | 2.0 | 5.0 | 0.00 | 0.00 | 0.00 | 87 | 1013.7 |
| 20260904070545 | 77 | 59 | 2.0 | 5.0 | 0.00 | 0.00 | 0.00 | 87 | 1013.7 |
| 20260904070059 | 77 | 77 | 2.0 | 4.0 | 0.00 | 0.00 | 0.00 | 87 | 1013.7 |
| 20260904065545 | 77 | 78 | 1.0 | 4.0 | 0.00 | 0.00 | 0.00 | 87 | 1013.8 |
| 20260904065045 | 77 | 69 | 1.0 | 3.0 | 0.00 | 0.00 | 0.00 | 87 | 1013.7 |
| 20260904064616 | 77 | 68 | 1.0 | 3.0 | 0.00 | 0.00 | 0.00 | 87 | 1013.8 |
| 20260904064044 | 77 | 68 | 1.0 | 3.0 | 0.00 | 0.00 | 0.00 | 87 | 1013.8 |
| 20260904063545 | 77 | 68 | 1.0 | 4.0 | 0.00 | 0.00 | 0.00 | 87 | 1013.8 |
| 20260904063133 | 78 | 67 | 2.0 | 4.0 | 0.00 | 0.00 | 0.00 | 87 | 1014.0 |
| 20260904062544 | 77 | 67 | 2.0 | 3.0 | 0.00 | 0.00 | 0.00 | 86 | 1014.0 |
| 20260904062050 | 77 | 68 | 1.0 | 3.0 | 0.00 | 0.00 | 0.00 | 86 | 1013.9 |
| 20260904061558 | 78 | 68 | 1.0 | 3.0 | 0.00 | 0.00 | 0.00 | 86 | 1013.8 |
| 20260904061043 | 78 | 68 | 1.0 | 3.0 | 0.00 | 0.00 | 0.00 | 86 | 1013.9 |
| 20260904060545 | 78 | 67 | 1.0 | 3.0 | 0.00 | 0.00 | 0.00 | 86 | 1013.9 |
| 20260904060110 | 78 | 67 | 0.0 | 3.0 | 0.00 | 0.00 | 0.00 | 86 | 1013.9 |
| 20260904055544 | 78 | 0 | 0.0 | 3.0 | 0.00 | 0.00 | 0.00 | 86 | 1013.9 |
| 20260904055047 | 78 | 67 | 1.0 | 4.0 | 0.00 | 0.00 | 0.00 | 86 | 1014.1 |
| 20260904054555 | 78 | 67 | 1.0 | 4.0 | 0.00 | 0.00 | 0.00 | 86 | 1014.0 |
| 20260904054044 | 78 | 67 | 1.0 | 4.0 | 0.00 | 0.00 | 0.00 | 86 | 1014.0 |
| 20260904053546 | 78 | 67 | 1.0 | 4.0 | 0.00 | 0.00 | 0.00 | 86 | 1014.1 |
| 20260904053103 | 78 | 65 | 2.0 | 3.0 | 0.00 | 0.00 | 0.00 | 86 | 1014.1 |
| 20260904052543 | 78 | 61 | 1.0 | 3.0 | 0.00 | 0.00 | 0.00 | 86 | 1014.1 |
| 20260904052045 | 78 | 61 | 1.0 | 3.0 | 0.00 | 0.00 | 0.00 | 86 | 1014.2 |
| 20260904051559 | 78 | 61 | 1.0 | 3.0 | 0.00 | 0.00 | 0.00 | 86 | 1014.3 |
| 20260904051043 | 78 | 61 | 1.0 | 3.0 | 0.00 | 0.00 | 0.00 | 86 | 1014.3 |
| 20260904050542 | 78 | 61 | 1.0 | 3.0 | 0.00 | 0.00 | 0.00 | 86 | 1014.3 |
| 20260904050058 | 78 | 58 | 1.0 | 3.0 | 0.00 | 0.00 | 0.00 | 86 | 1014.3 |
| 20260904045542 | 78 | 57 | 1.0 | 4.0 | 0.00 | 0.00 | 0.00 | 86 | 1014.2 |
| 20260904045046 | 78 | 57 | 2.0 | 4.0 | 0.00 | 0.00 | 0.00 | 86 | 1014.3 |
| 20260904044553 | 78 | 57 | 2.0 | 4.0 | 0.00 | 0.00 | 0.00 | 86 | 1014.3 |
| 20260904044046 | 78 | 101 | 1.0 | 3.0 | 0.00 | 0.00 | 0.00 | 86 | 1014.4 |